TGM annuale;;;;;;;;;;;;;;;;TGM annuale;;;;;;;;;;;;;;;;TGM annuale;;;;;;;;;;;;;;
Tratta nr.58 SR439, Km 21.350, Lucca(LU) (flussi ascendente/discendente);;;;;;;;;;;;;;;;Tratta nr.58 SR439, Km 21.350, Lucca(LU) (flusso ascendente);;;;;;;;;;;;;;;;Tratta nr.58 SR439, Km 21.350, Lucca(LU) (flusso discendente);;;;;;;;;;;;;;
Anno;01 Motocicli;02 Auto e monovolume;03 Auto e monovolume con rimorchio;04 Furgoncini e camioncini;05 Camion medi;06 Camion grandi;07 Autotreni;08 Autoarticolati;09 Autobus;10 Veicoli non classificati;Totale;Feriali;Festivi;Prefestivi;;Anno;01 Motocicli;02 Auto e monovolume;03 Auto e monovolume con rimorchio;04 Furgoncini e camioncini;05 Camion medi;06 Camion grandi;07 Autotreni;08 Autoarticolati;09 Autobus;10 Veicoli non classificati;Totale;Feriali;Festivi;Prefestivi;;Anno;01 Motocicli;02 Auto e monovolume;03 Auto e monovolume con rimorchio;04 Furgoncini e camioncini;05 Camion medi;06 Camion grandi;07 Autotreni;08 Autoarticolati;09 Autobus;10 Veicoli non classificati;Totale;Feriali;Festivi;Prefestivi
2019;223;13355;7;727;71;27;10;9;56;0;14485;15394;11151;14073;;2019;135;6786;4;413;39;12;3;4;27;0;7423;7892;5734;7172;;2019;87;6569;3;314;33;15;7;5;29;0;7062;7502;5418;6901
;;;;;;;;;;;;;;;;;;;;;;;;;;;;;;;;;;;;;;;;;;;;;;
Tabella flussi 2019;;;;;;;;;;;;;;;;Tabella flussi 2019;;;;;;;;;;;;;;;;Tabella flussi 2019;;;;;;;;;;;;;;
Tratta nr.58 SR439, Km 21.350, Lucca(LU) (flussi ascendente/discendente);;;;;;;;;;;;;;;;Tratta nr.58 SR439, Km 21.350, Lucca(LU) (flusso ascendente);;;;;;;;;;;;;;;;Tratta nr.58 SR439, Km 21.350, Lucca(LU) (flusso discendente);;;;;;;;;;;;;;
;Traffico Totale;;;;;;;;;;;Traffico Med.Orario 06:00 - 20:00;Traffico Ora di punta;;;;Traffico Totale;;;;;;;;;;;Traffico Med.Orario 06:00 - 20:00;Traffico Ora di punta;;;;Traffico Totale;;;;;;;;;;;Traffico Med.Orario 06:00 - 20:00;Traffico Ora di punta;
Giorno;01 Motocicli;02 Auto e monovolume;03 Auto e monovolume con rimorchio;04 Furgoncini e camioncini;05 Camion medi;06 Camion grandi;07 Autotreni;08 Autoarticolati;09 Autobus;10 Veicoli non classificati;Totale;Totale;Ora di punta;Flusso totale ora di punta;;Giorno;01 Motocicli;02 Auto e monovolume;03 Auto e monovolume con rimorchio;04 Furgoncini e camioncini;05 Camion medi;06 Camion grandi;07 Autotreni;08 Autoarticolati;09 Autobus;10 Veicoli non classificati;Totale;Totale;Ora di punta;Flusso totale ora di punta;;Giorno;01 Motocicli;02 Auto e monovolume;03 Auto e monovolume con rimorchio;04 Furgoncini e camioncini;05 Camion medi;06 Camion grandi;07 Autotreni;08 Autoarticolati;09 Autobus;10 Veicoli non classificati;Totale;Totale;Ora di punta;Flusso totale ora di punta
01/01/2019;51;10561;0;170;5;3;0;0;1;0;10791;583;17;1204;;01/01/2019;27;5952;0;103;4;2;0;0;1;0;6089;342;18;882;;01/01/2019;24;4609;0;67;1;1;0;0;0;0;4702;241;16;374
02/01/2019;68;12133;4;680;44;14;7;6;60;0;13016;827;17;1053;;02/01/2019;45;6164;1;381;22;3;1;4;31;0;6652;428;15;530;;02/01/2019;23;5969;3;299;22;11;6;2;29;0;6364;398;18;571
03/01/2019;63;12771;2;785;51;11;7;7;67;0;13764;870;17;1123;;03/01/2019;43;6470;1;452;28;3;2;2;32;0;7033;450;8;604;;03/01/2019;20;6301;1;333;23;8;5;5;35;0;6731;420;17;621
04/01/2019;63;13077;6;788;45;14;2;7;66;0;14068;885;17;1119;;04/01/2019;45;6679;2;433;22;7;1;4;31;0;7224;461;8;566;;04/01/2019;18;6398;4;355;23;7;1;3;35;0;6844;424;12;596
05/01/2019;54;12155;10;464;34;6;4;4;61;0;12792;781;12;1084;;05/01/2019;36;6173;6;264;15;3;1;2;29;0;6529;402;10;556;;05/01/2019;18;5982;4;200;19;3;3;2;32;0;6263;379;12;627
06/01/2019;60;9502;2;179;1;2;1;1;32;0;9780;569;17;897;;06/01/2019;32;4818;1;110;0;2;1;0;15;0;4979;294;16;498;;06/01/2019;28;4684;1;69;1;0;0;1;17;0;4801;275;12;454
07/01/2019;65;13462;8;836;86;31;11;13;70;0;14582;940;8;1202;;07/01/2019;43;6855;4;469;49;17;5;4;35;0;7481;491;8;770;;07/01/2019;22;6607;4;367;37;14;6;9;35;0;7101;449;18;639
08/01/2019;58;13724;11;829;115;20;13;9;69;0;14848;952;8;1236;;08/01/2019;35;6995;5;465;59;10;3;5;34;0;7611;495;7;785;;08/01/2019;23;6729;6;364;56;10;10;4;35;0;7237;457;17;663
09/01/2019;76;13678;2;895;92;26;9;15;68;0;14861;953;8;1221;;09/01/2019;50;6966;1;516;45;14;1;3;36;0;7632;496;8;760;;09/01/2019;26;6712;1;379;47;12;8;12;32;0;7229;458;17;636
10/01/2019;80;13747;8;839;97;25;14;14;73;0;14897;949;8;1238;;10/01/2019;48;7041;4;461;60;9;2;8;38;0;7671;497;8;798;;10/01/2019;32;6706;4;378;37;16;12;6;35;0;7226;452;18;623
11/01/2019;59;14129;6;840;90;28;14;11;77;0;15254;957;8;1224;;11/01/2019;38;7193;3;474;51;10;1;5;38;0;7813;497;8;769;;11/01/2019;21;6936;3;366;39;18;13;6;39;0;7441;460;18;620
12/01/2019;64;13195;13;463;47;3;4;1;68;0;13858;852;12;1153;;12/01/2019;40;6694;7;274;25;1;1;0;36;0;7078;441;16;574;;12/01/2019;24;6501;6;189;22;2;3;1;32;0;6780;411;12;667
13/01/2019;57;10117;9;204;6;0;2;0;23;0;10418;606;12;927;;13/01/2019;34;5115;5;127;2;0;1;0;12;0;5296;317;17;491;;13/01/2019;23;5002;4;77;4;0;1;0;11;0;5122;288;12;522
14/01/2019;89;13629;5;824;105;41;20;13;76;0;14802;946;8;1196;;14/01/2019;56;6945;2;443;59;21;3;4;34;0;7567;492;7;772;;14/01/2019;33;6684;3;381;46;20;17;9;42;0;7235;454;18;669
15/01/2019;87;14005;3;907;116;43;8;18;74;0;15261;975;8;1267;;15/01/2019;53;7168;1;487;66;16;1;9;37;0;7838;508;8;801;;15/01/2019;34;6837;2;420;50;27;7;9;37;0;7423;467;18;663
16/01/2019;84;13687;11;892;106;32;13;6;78;0;14909;951;8;1254;;16/01/2019;54;7004;5;482;60;15;1;2;37;0;7660;493;8;788;;16/01/2019;30;6683;6;410;46;17;12;4;41;0;7249;458;18;615
17/01/2019;43;13542;5;785;101;21;11;12;64;0;14584;927;8;1220;;17/01/2019;35;6884;3;440;49;8;4;5;34;0;7462;483;8;780;;17/01/2019;8;6658;2;345;52;13;7;7;30;0;7122;444;18;587
18/01/2019;60;13919;6;844;79;23;11;10;63;0;15015;939;8;1215;;18/01/2019;37;7107;4;461;49;10;3;2;31;0;7704;487;8;776;;18/01/2019;23;6812;2;383;30;13;8;8;32;0;7311;452;17;624
19/01/2019;98;13135;11;486;42;7;4;1;68;0;13852;844;12;1120;;19/01/2019;62;6644;8;280;20;2;2;0;36;0;7054;434;10;572;;19/01/2019;36;6491;3;206;22;5;2;1;32;0;6798;409;12;639
20/01/2019;46;10393;6;188;8;0;2;0;25;0;10668;622;16;920;;20/01/2019;31;5215;2;127;0;0;2;0;13;0;5390;322;16;519;;20/01/2019;15;5178;4;61;8;0;0;0;12;0;5278;300;12;447
21/01/2019;73;13587;12;790;94;32;10;10;64;0;14672;938;8;1234;;21/01/2019;47;6883;8;433;54;13;0;5;32;0;7475;485;8;786;;21/01/2019;26;6704;4;357;40;19;10;5;32;0;7197;453;18;622
22/01/2019;47;13530;2;799;90;28;15;11;71;0;14593;935;8;1244;;22/01/2019;33;6900;1;446;52;6;4;4;35;0;7481;486;8;799;;22/01/2019;14;6630;1;353;38;22;11;7;36;0;7112;449;17;626
23/01/2019;26;12889;4;807;81;27;10;9;70;0;13923;890;8;1213;;23/01/2019;17;6554;3;448;47;11;2;5;32;0;7119;461;8;776;;23/01/2019;9;6335;1;359;34;16;8;4;38;0;6804;429;18;570
24/01/2019;84;13841;12;810;120;31;13;9;62;0;14982;948;8;1192;;24/01/2019;44;7026;7;452;63;13;3;4;32;0;7644;493;7;754;;24/01/2019;40;6815;5;358;57;18;10;5;30;0;7338;455;18;635
25/01/2019;70;14128;5;872;110;29;14;13;70;0;15311;960;8;1221;;25/01/2019;43;7208;3;492;54;13;3;5;35;0;7856;500;8;776;;25/01/2019;27;6920;2;380;56;16;11;8;35;0;7455;460;18;607
26/01/2019;89;12999;3;516;49;5;5;3;64;0;13733;836;12;1069;;26/01/2019;57;6605;3;284;30;2;0;1;33;0;7015;432;11;550;;26/01/2019;32;6394;0;232;19;3;5;2;31;0;6718;404;12;654
27/01/2019;21;8947;4;166;5;0;0;0;22;0;9165;530;12;764;;27/01/2019;17;4420;3;112;3;0;0;0;11;0;4566;270;16;405;;27/01/2019;4;4527;1;54;2;0;0;0;11;0;4599;260;12;424
28/01/2019;83;13422;7;764;98;28;7;16;74;0;14499;925;8;1138;;28/01/2019;54;6823;5;435;54;13;2;9;38;0;7433;482;7;755;;28/01/2019;29;6599;2;329;44;15;5;7;36;0;7066;443;18;628
29/01/2019;95;13714;4;840;84;40;11;13;66;0;14867;949;8;1246;;29/01/2019;61;6917;2;475;47;19;4;3;33;0;7561;490;8;790;;29/01/2019;34;6797;2;365;37;21;7;10;33;0;7306;458;18;672
30/01/2019;44;13019;13;813;88;39;14;7;72;0;14109;904;8;1236;;30/01/2019;34;6646;8;460;46;22;3;3;36;0;7258;472;8;789;;30/01/2019;10;6373;5;353;42;17;11;4;36;0;6851;432;18;554
31/01/2019;46;12554;4;795;75;24;7;6;70;0;13581;859;8;1229;;31/01/2019;32;6374;2;455;40;12;1;3;34;0;6953;447;8;767;;31/01/2019;14;6180;2;340;35;12;6;3;36;0;6628;411;18;555
01/02/2019;39;13555;5;801;89;24;4;16;73;0;14606;912;8;1271;;01/02/2019;30;6911;2;462;48;11;1;5;36;0;7506;475;8;808;;01/02/2019;9;6644;3;339;41;13;3;11;37;0;7100;438;19;569
02/02/2019;31;11868;4;483;32;6;3;1;64;0;12492;750;11;1007;;02/02/2019;23;6079;2;290;20;3;0;1;32;0;6450;389;10;521;;02/02/2019;8;5789;2;193;12;3;3;0;32;0;6042;361;12;558
03/02/2019;20;9676;0;171;10;0;0;2;19;0;9898;581;16;902;;03/02/2019;13;4864;0;112;3;0;0;1;10;0;5003;297;16;486;;03/02/2019;7;4812;0;59;7;0;0;1;9;0;4895;283;12;441
04/02/2019;85;13331;8;855;76;25;17;16;81;0;14494;927;17;1154;;04/02/2019;55;6682;3;488;42;13;12;7;39;0;7341;478;7;739;;04/02/2019;30;6649;5;367;34;12;5;9;42;0;7153;449;17;641
05/02/2019;103;13659;8;876;94;39;12;8;75;0;14874;947;8;1251;;05/02/2019;57;6950;4;475;47;17;4;3;35;0;7592;489;8;808;;05/02/2019;46;6709;4;401;47;22;8;5;40;0;7282;458;18;662
06/02/2019;96;13858;8;895;86;33;13;8;71;0;15068;962;8;1311;;06/02/2019;59;7053;3;495;48;15;4;3;34;0;7714;498;8;826;;06/02/2019;37;6805;5;400;38;18;9;5;37;0;7354;464;18;644
07/02/2019;90;13910;7;879;75;30;25;7;71;0;15094;957;8;1235;;07/02/2019;53;7048;3;486;44;15;12;2;37;0;7700;496;8;759;;07/02/2019;37;6862;4;393;31;15;13;5;34;0;7394;461;18;655
08/02/2019;97;14295;5;921;108;22;19;14;68;0;15549;976;8;1262;;08/02/2019;52;7335;3;528;57;10;5;6;34;0;8030;511;8;799;;08/02/2019;45;6960;2;393;51;12;14;8;34;0;7519;465;18;695
09/02/2019;67;12980;6;553;34;5;2;2;67;0;13716;830;12;1119;;09/02/2019;45;6553;3;326;18;2;0;0;33;0;6980;424;10;556;;09/02/2019;22;6427;3;227;16;3;2;2;34;0;6736;406;12;649
10/02/2019;72;9652;5;192;7;0;1;0;23;0;9952;574;17;831;;10/02/2019;45;4847;3;122;2;0;1;0;13;0;5033;295;17;453;;10/02/2019;27;4805;2;70;5;0;0;0;10;0;4919;278;12;446
11/02/2019;79;13675;5;821;94;33;10;10;73;0;14800;947;8;1256;;11/02/2019;50;6937;2;463;55;16;3;3;35;0;7564;493;8;828;;11/02/2019;29;6738;3;358;39;17;7;7;38;0;7236;453;18;662
12/02/2019;117;13827;3;821;96;32;15;15;76;0;15002;954;8;1271;;12/02/2019;73;7018;3;465;46;19;2;6;35;0;7667;492;8;802;;12/02/2019;44;6809;0;356;50;13;13;9;41;0;7335;462;18;711
13/02/2019;90;13933;5;858;105;38;12;17;75;0;15133;964;8;1291;;13/02/2019;59;7090;4;476;60;18;4;3;36;0;7750;501;8;827;;13/02/2019;31;6843;1;382;45;20;8;14;39;0;7383;463;18;654
14/02/2019;119;14775;11;892;87;40;13;12;71;0;16020;1006;8;1318;;14/02/2019;76;7533;6;495;47;19;4;4;33;0;8217;523;8;831;;14/02/2019;43;7242;5;397;40;21;9;8;38;0;7803;483;17;662
15/02/2019;87;14509;6;911;110;35;20;13;69;0;15760;977;8;1176;;15/02/2019;56;7437;4;493;60;18;2;5;34;0;8109;509;8;744;;15/02/2019;31;7072;2;418;50;17;18;8;35;0;7651;469;18;636
16/02/2019;138;13786;9;596;48;5;3;2;67;0;14654;893;12;1130;;16/02/2019;91;7005;7;352;25;2;0;1;32;0;7515;467;16;558;;16/02/2019;47;6781;2;244;23;3;3;1;35;0;7139;426;12;648
17/02/2019;148;10983;5;212;9;3;1;1;28;0;11390;669;18;1163;;17/02/2019;79;5833;3;141;4;0;1;0;16;0;6077;359;18;719;;17/02/2019;69;5150;2;71;5;3;0;1;12;0;5313;310;12;504
18/02/2019;106;13683;14;868;86;48;10;7;74;0;14896;952;8;1236;;18/02/2019;62;6962;11;480;54;24;0;2;34;0;7629;495;8;800;;18/02/2019;44;6721;3;388;32;24;10;5;40;0;7267;457;17;666
19/02/2019;100;13649;10;908;101;30;16;18;70;0;14902;949;8;1243;;19/02/2019;67;6971;7;522;57;14;5;9;33;0;7685;495;8;793;;19/02/2019;33;6678;3;386;44;16;11;9;37;0;7217;454;17;673
20/02/2019;137;13704;5;890;97;34;8;11;74;0;14960;955;8;1298;;20/02/2019;86;6981;2;493;59;15;0;5;36;0;7677;499;8;841;;20/02/2019;51;6723;3;397;38;19;8;6;38;0;7283;456;17;632
21/02/2019;112;14373;8;908;93;22;20;12;68;0;15616;989;8;1333;;21/02/2019;73;7357;4;522;51;10;8;4;32;0;8061;517;8;800;;21/02/2019;39;7016;4;386;42;12;12;8;36;0;7555;472;18;647
22/02/2019;117;14649;7;875;109;22;10;12;71;0;15872;993;8;1336;;22/02/2019;71;7510;6;487;63;9;3;4;33;0;8186;519;8;845;;22/02/2019;46;7139;1;388;46;13;7;8;38;0;7686;474;18;666
23/02/2019;123;13558;13;541;47;4;2;2;66;0;14356;872;12;1064;;23/02/2019;77;6806;8;324;26;1;0;0;32;0;7274;444;10;541;;23/02/2019;46;6752;5;217;21;3;2;2;34;0;7082;427;12;602
24/02/2019;94;10794;1;192;7;6;1;0;19;0;11114;654;18;1031;;24/02/2019;59;5606;1;136;4;2;1;0;9;0;5818;349;17;628;;24/02/2019;35;5188;0;56;3;4;0;0;10;0;5296;304;12;440
25/02/2019;100;13845;10;766;103;31;11;10;67;0;14943;960;8;1297;;25/02/2019;65;7075;6;438;56;17;1;4;33;0;7695;502;8;821;;25/02/2019;35;6770;4;328;47;14;10;6;34;0;7248;458;18;649
26/02/2019;121;14219;8;773;75;25;17;11;71;0;15320;978;8;1288;;26/02/2019;70;7211;6;416;44;10;6;5;35;0;7803;502;8;824;;26/02/2019;51;7008;2;357;31;15;11;6;36;0;7517;475;18;673
27/02/2019;117;13950;6;848;109;36;16;14;70;0;15166;970;8;1320;;27/02/2019;72;7095;4;474;57;15;7;8;31;0;7763;505;8;828;;27/02/2019;45;6855;2;374;52;21;9;6;39;0;7403;465;18;659
28/02/2019;136;14554;7;879;108;30;18;9;72;0;15813;1005;8;1315;;28/02/2019;86;7442;4;486;61;12;2;3;34;0;8130;523;8;830;;28/02/2019;50;7112;3;393;47;18;16;6;38;0;7683;481;18;704
01/03/2019;109;14526;3;867;111;34;10;13;69;0;15742;982;8;1291;;01/03/2019;67;7415;2;481;64;13;4;4;32;0;8082;512;8;824;;01/03/2019;42;7111;1;386;47;21;6;9;37;0;7660;470;18;669
02/03/2019;174;13517;9;584;80;11;5;2;63;0;14445;883;12;1079;;02/03/2019;104;6775;6;333;36;4;1;0;32;0;7291;451;9;549;;02/03/2019;70;6742;3;251;44;7;4;2;31;0;7154;432;12;618
03/03/2019;211;11328;7;237;8;0;4;1;29;0;11825;701;18;1236;;03/03/2019;124;6036;5;152;3;0;3;0;15;0;6338;376;18;784;;03/03/2019;87;5292;2;85;5;0;1;1;14;0;5487;325;18;452
04/03/2019;109;13995;5;857;98;31;21;11;75;0;15202;975;8;1356;;04/03/2019;67;7107;3;484;53;15;5;3;36;0;7773;507;8;849;;04/03/2019;42;6888;2;373;45;16;16;8;39;0;7429;468;18;656
05/03/2019;132;14478;4;849;97;31;15;10;72;0;15688;987;8;1276;;05/03/2019;83;7361;1;479;57;15;4;3;33;0;8036;505;8;816;;05/03/2019;49;7117;3;370;40;16;11;7;39;0;7652;482;18;672
06/03/2019;139;13973;8;861;104;31;16;16;79;0;15227;963;8;1294;;06/03/2019;92;7145;5;480;61;12;4;7;35;0;7841;503;8;833;;06/03/2019;47;6828;3;381;43;19;12;9;44;0;7386;460;18;654
07/03/2019;84;14542;20;879;113;28;12;16;79;0;15773;996;8;1394;;07/03/2019;48;7425;9;470;67;13;2;7;37;0;8078;518;8;869;;07/03/2019;36;7117;11;409;46;15;10;9;42;0;7695;478;18;684
08/03/2019;132;14954;5;950;101;29;12;18;68;0;16269;1019;8;1345;;08/03/2019;77;7570;3;541;60;10;3;9;37;0;8310;528;8;832;;08/03/2019;55;7384;2;409;41;19;9;9;31;0;7959;491;18;654
09/03/2019;140;13254;7;539;60;10;10;7;66;0;14093;853;12;1116;;09/03/2019;75;6724;6;298;33;4;6;2;33;0;7181;439;16;547;;09/03/2019;65;6530;1;241;27;6;4;5;33;0;6912;414;12;638
10/03/2019;52;9191;4;201;18;2;1;0;25;0;9494;549;12;812;;10/03/2019;28;4588;3;120;8;0;0;0;13;0;4760;282;16;463;;10/03/2019;24;4603;1;81;10;2;1;0;12;0;4734;267;12;459
11/03/2019;127;13802;4;845;93;35;7;9;67;0;14989;958;8;1301;;11/03/2019;75;6994;2;471;50;17;0;5;33;0;7647;496;7;812;;11/03/2019;52;6808;2;374;43;18;7;4;34;0;7342;462;17;650
12/03/2019;116;14355;8;874;94;23;13;10;70;0;15563;983;17;1285;;12/03/2019;71;7283;5;494;48;10;5;4;33;0;7953;508;8;816;;12/03/2019;45;7072;3;380;46;13;8;6;37;0;7610;475;18;691
13/03/2019;53;13952;5;855;96;31;6;13;70;0;15081;965;8;1351;;13/03/2019;32;7092;2;464;56;12;2;6;34;0;7700;500;8;844;;13/03/2019;21;6860;3;391;40;19;4;7;36;0;7381;465;18;644
14/03/2019;126;14303;8;848;80;21;8;14;68;0;15476;981;8;1389;;14/03/2019;89;7282;1;468;39;11;4;6;34;0;7934;513;8;846;;14/03/2019;37;7021;7;380;41;10;4;8;34;0;7542;469;17;631
15/03/2019;155;14680;6;931;89;46;16;10;73;0;16006;1002;8;1355;;15/03/2019;101;7478;4;511;51;25;6;4;34;0;8214;522;8;863;;15/03/2019;54;7202;2;420;38;21;10;6;39;0;7792;480;17;642
16/03/2019;213;14146;15;536;57;6;6;3;71;0;15053;912;17;1142;;16/03/2019;131;7160;7;316;21;2;2;1;34;0;7674;470;16;619;;16/03/2019;82;6986;8;220;36;4;4;2;37;0;7379;442;12;621
17/03/2019;140;10836;6;206;13;3;5;1;22;0;11232;662;17;1042;;17/03/2019;74;5502;3;136;10;1;2;0;10;0;5738;348;17;595;;17/03/2019;66;5334;3;70;3;2;3;1;12;0;5494;314;12;488
18/03/2019;124;13864;5;840;95;34;12;15;72;0;15061;964;8;1235;;18/03/2019;79;7023;2;454;54;19;2;2;36;0;7671;498;7;799;;18/03/2019;45;6841;3;386;41;15;10;13;36;0;7390;466;17;637
19/03/2019;120;14373;9;939;98;39;12;9;76;0;15675;998;8;1382;;19/03/2019;71;7258;5;516;52;21;4;5;34;0;7966;515;8;863;;19/03/2019;49;7115;4;423;46;18;8;4;42;0;7709;483;19;701
20/03/2019;154;14037;8;901;100;37;16;8;70;0;15331;973;8;1288;;20/03/2019;96;7151;2;512;55;16;3;4;36;0;7875;506;8;809;;20/03/2019;58;6886;6;389;45;21;13;4;34;0;7456;468;19;653
21/03/2019;178;14552;7;910;107;33;21;11;70;0;15889;1000;8;1406;;21/03/2019;109;7380;4;512;57;19;8;3;35;0;8127;523;8;868;;21/03/2019;69;7172;3;398;50;14;13;8;35;0;7762;477;18;659
22/03/2019;206;14797;9;891;107;39;10;11;71;0;16141;998;8;1340;;22/03/2019;122;7607;5;498;55;23;3;3;39;0;8355;519;8;832;;22/03/2019;84;7190;4;393;52;16;7;8;32;0;7786;479;19;652
23/03/2019;275;13494;14;528;47;4;7;4;66;0;14439;883;18;1075;;23/03/2019;163;6862;7;296;24;0;2;1;33;0;7388;458;17;557;;23/03/2019;112;6632;7;232;23;4;5;3;33;0;7051;425;13;571
24/03/2019;293;13098;6;261;10;2;1;2;24;0;13697;801;18;1426;;24/03/2019;175;7199;6;181;7;0;0;0;11;0;7579;442;18;960;;24/03/2019;118;5899;0;80;3;2;1;2;13;0;6118;359;11;512
25/03/2019;189;13948;7;857;121;38;12;14;66;0;15252;974;8;1294;;25/03/2019;116;7118;4;462;64;20;3;4;31;0;7822;507;8;819;;25/03/2019;73;6830;3;395;57;18;9;10;35;0;7430;466;17;629
26/03/2019;96;14226;9;872;103;26;9;14;70;0;15425;982;8;1340;;26/03/2019;60;7230;2;483;50;8;3;7;35;0;7878;508;8;863;;26/03/2019;36;6996;7;389;53;18;6;7;35;0;7547;474;19;687
27/03/2019;127;14080;8;903;91;26;17;10;81;0;15343;975;8;1273;;27/03/2019;75;7142;5;507;52;17;2;3;36;0;7839;506;7;833;;27/03/2019;52;6938;3;396;39;9;15;7;45;0;7504;469;18;643
28/03/2019;157;14469;7;873;83;25;15;13;70;0;15712;989;8;1327;;28/03/2019;99;7380;4;490;50;11;5;4;33;0;8076;516;8;844;;28/03/2019;58;7089;3;383;33;14;10;9;37;0;7636;473;19;645
29/03/2019;214;14470;10;933;89;31;17;12;77;0;15853;987;8;1307;;29/03/2019;127;7391;4;525;52;14;2;6;36;0;8157;515;8;810;;29/03/2019;87;7079;6;408;37;17;15;6;41;0;7696;472;18;648
30/03/2019;254;13842;9;608;46;9;5;6;73;0;14852;906;12;1091;;30/03/2019;157;7000;6;360;26;5;0;3;37;0;7594;468;9;562;;30/03/2019;97;6842;3;248;20;4;5;3;36;0;7258;438;12;604
31/03/2019;265;11960;14;308;14;0;3;2;34;0;12600;748;18;1412;;31/03/2019;169;6548;8;195;7;0;2;0;19;0;6948;423;18;992;;31/03/2019;96;5412;6;113;7;0;1;2;15;0;5652;324;12;520
01/04/2019;199;14116;4;898;80;56;8;8;84;0;15453;981;8;1259;;01/04/2019;122;7137;3;515;47;30;2;3;39;0;7898;512;8;802;;01/04/2019;77;6979;1;383;33;26;6;5;45;0;7555;470;18;662
02/04/2019;155;14334;5;948;91;47;17;13;73;0;15683;996;8;1348;;02/04/2019;101;7361;3;529;49;27;2;4;34;0;8110;522;8;864;;02/04/2019;54;6973;2;419;42;20;15;9;39;0;7573;474;18;693
03/04/2019;52;14143;9;874;95;22;12;12;75;0;15294;964;8;1287;;03/04/2019;35;7239;6;495;55;12;2;6;36;0;7886;505;8;850;;03/04/2019;17;6904;3;379;40;10;10;6;39;0;7408;459;18;621
04/04/2019;65;14131;2;913;80;36;18;11;79;0;15335;958;8;1322;;04/04/2019;43;7152;1;515;55;14;2;3;36;0;7821;498;8;831;;04/04/2019;22;6979;1;398;25;22;16;8;43;0;7514;459;18;626
05/04/2019;103;14990;5;973;93;35;20;15;78;0;16312;1010;8;1333;;05/04/2019;64;7615;3;529;55;17;5;4;39;0;8331;524;8;824;;05/04/2019;39;7375;2;444;38;18;15;11;39;0;7981;486;18;674
06/04/2019;170;14072;9;568;44;8;5;6;66;0;14948;901;16;1117;;06/04/2019;96;7099;6;325;23;2;2;1;33;0;7587;464;16;609;;06/04/2019;74;6973;3;243;21;6;3;5;33;0;7361;438;12;607
07/04/2019;85;10234;4;224;15;3;0;0;26;0;10591;601;18;888;;07/04/2019;49;5103;3;144;8;1;0;0;14;0;5322;309;18;455;;07/04/2019;36;5131;1;80;7;2;0;0;12;0;5269;291;19;441
08/04/2019;161;14304;4;831;91;34;12;10;75;0;15522;977;8;1298;;08/04/2019;100;7280;3;466;52;14;2;6;36;0;7959;509;8;826;;08/04/2019;61;7024;1;365;39;20;10;4;39;0;7563;467;18;681
09/04/2019;190;14354;4;950;116;36;15;14;85;0;15764;999;8;1310;;09/04/2019;114;7290;2;522;67;17;1;7;37;0;8057;516;8;861;;09/04/2019;76;7064;2;428;49;19;14;7;48;0;7707;484;19;691
10/04/2019;136;14389;11;867;94;39;13;13;75;0;15637;990;8;1302;;10/04/2019;86;7332;6;501;51;15;3;3;38;0;8035;516;8;826;;10/04/2019;50;7057;5;366;43;24;10;10;37;0;7602;474;19;692
11/04/2019;83;14830;15;899;94;23;10;13;84;0;16051;1012;8;1417;;11/04/2019;55;7556;9;504;51;9;1;3;41;0;8229;526;8;897;;11/04/2019;28;7274;6;395;43;14;9;10;43;0;7822;486;18;679
12/04/2019;117;15144;4;948;109;29;16;8;65;0;16440;1019;8;1355;;12/04/2019;79;7772;2;512;64;11;5;3;33;0;8481;534;8;844;;12/04/2019;38;7372;2;436;45;18;11;5;32;0;7959;485;19;690
13/04/2019;207;14106;7;548;58;6;2;3;71;0;15008;898;12;1147;;13/04/2019;131;7105;4;325;28;4;0;1;36;0;7634;461;8;562;;13/04/2019;76;7001;3;223;30;2;2;2;35;0;7374;437;12;663
14/04/2019;28;9497;1;182;10;0;0;1;26;0;9745;550;12;755;;14/04/2019;19;4799;0;115;6;0;0;0;14;0;4953;285;16;409;;14/04/2019;9;4698;1;67;4;0;0;1;12;0;4792;264;12;438
15/04/2019;174;14444;8;878;100;43;16;17;77;0;15757;1001;8;1381;;15/04/2019;112;7344;3;505;60;13;5;8;36;0;8086;525;8;884;;15/04/2019;62;7100;5;373;40;30;11;9;41;0;7671;475;18;667
16/04/2019;240;14962;4;958;122;40;25;10;68;0;16429;1032;8;1352;;16/04/2019;140;7615;1;529;64;15;8;6;33;0;8411;536;8;870;;16/04/2019;100;7347;3;429;58;25;17;4;35;0;8018;496;19;743
17/04/2019;215;15148;9;970;104;43;18;12;74;0;16593;1044;8;1375;;17/04/2019;144;7708;5;536;68;15;4;5;36;0;8521;546;8;854;;17/04/2019;71;7440;4;434;36;28;14;7;38;0;8072;497;19;665
18/04/2019;260;14432;9;919;60;20;14;10;71;0;15795;971;17;1234;;18/04/2019;152;7304;3;523;34;9;4;4;32;0;8065;509;8;786;;18/04/2019;108;7128;6;396;26;11;10;6;39;0;7730;462;18;665
19/04/2019;235;14999;6;943;97;21;11;10;66;0;16388;1005;17;1228;;19/04/2019;148;7577;3;530;42;8;3;3;31;0;8345;519;8;703;;19/04/2019;87;7422;3;413;55;13;8;7;35;0;8043;485;18;664
20/04/2019;271;13720;6;544;31;6;2;3;63;0;14646;881;11;1171;;20/04/2019;162;6909;5;326;17;2;1;2;31;0;7455;457;9;625;;20/04/2019;109;6811;1;218;14;4;1;1;32;0;7191;424;12;655
21/04/2019;224;10442;2;193;3;2;3;0;9;0;10878;613;12;1143;;21/04/2019;134;5191;1;115;3;0;3;0;5;0;5452;309;18;547;;21/04/2019;90;5251;1;78;0;2;0;0;4;0;5426;304;12;683
22/04/2019;224;10988;2;309;11;11;1;1;39;0;11586;710;17;1160;;22/04/2019;140;5828;0;217;5;5;0;1;21;0;6217;385;17;784;;22/04/2019;84;5160;2;92;6;6;1;0;18;0;5369;326;11;630
23/04/2019;46;13449;2;725;50;25;1;7;59;0;14364;904;17;1184;;23/04/2019;35;6804;1;434;24;6;0;3;29;0;7336;467;8;694;;23/04/2019;11;6645;1;291;26;19;1;4;30;0;7028;436;18;647
24/04/2019;126;14029;14;939;71;27;16;19;64;0;15305;945;17;1180;;24/04/2019;73;7144;9;513;41;13;3;7;31;0;7834;490;8;680;;24/04/2019;53;6885;5;426;30;14;13;12;33;0;7471;455;18;677
25/04/2019;231;10622;6;296;14;10;6;3;29;0;11217;649;18;929;;25/04/2019;139;5302;4;188;4;3;3;2;14;0;5659;334;17;511;;25/04/2019;92;5320;2;108;10;7;3;1;15;0;5558;315;12;455
26/04/2019;134;14114;9;827;46;14;9;12;65;0;15230;939;17;1142;;26/04/2019;85;7197;4;462;27;4;3;6;33;0;7821;488;8;629;;26/04/2019;49;6917;5;365;19;10;6;6;32;0;7409;451;19;672
27/04/2019;274;13737;8;541;36;6;2;1;69;0;14674;875;18;1081;;27/04/2019;157;6913;4;310;18;3;1;0;34;0;7440;451;10;602;;27/04/2019;117;6824;4;231;18;3;1;1;35;0;7234;424;12;587
28/04/2019;111;10021;5;207;12;2;3;2;25;0;10388;606;16;855;;28/04/2019;52;4974;3;133;6;1;1;2;11;0;5183;309;17;466;;28/04/2019;59;5047;2;74;6;1;2;0;14;0;5205;297;12;460
29/04/2019;170;14937;5;922;101;34;14;10;77;0;16270;1032;8;1311;;29/04/2019;101;7617;3;518;58;17;3;5;33;0;8355;539;7;810;;29/04/2019;69;7320;2;404;43;17;11;5;44;0;7915;494;18;721
30/04/2019;190;15671;12;994;111;43;16;16;76;0;17129;1042;8;1373;;30/04/2019;119;8076;5;581;65;17;5;10;38;0;8916;542;8;860;;30/04/2019;71;7595;7;413;46;26;11;6;38;0;8213;500;18;699
01/05/2019;282;10895;5;278;20;6;3;0;10;0;11499;673;19;1015;;01/05/2019;165;5574;4;169;7;2;1;0;5;0;5927;350;18;651;;01/05/2019;117;5321;1;109;13;4;2;0;5;0;5572;323;12;539
02/05/2019;198;15009;10;996;112;29;18;10;82;0;16464;1037;8;1362;;02/05/2019;127;7652;5;555;57;19;5;3;38;0;8461;544;8;856;;02/05/2019;71;7357;5;441;55;10;13;7;44;0;8003;494;18;692